This demonstration page uses our WeatherBlox Daily Observations layout. Learn more.

Left ArrowRight Arrow

Hourly Observations for June 29, 2021

Temp ( °F °C ) Dew Point ( °F °C ) Humidity (%) Winds ( mph kmh ) Pressure ( in mb ) Visibility ( mi km ) Precip ( " mm )
12:08 am 00:08 Cloudy with Nearby Thunderstorms 68 20 67 19.4 96 96 NNE 9 15 29.93 1014 5 8 0.00 0.00
12:28 am 00:28 Cloudy 70 21.1 68 20 93 93 NE 9 15 29.93 1013 10 16 0.00 0.00
12:40 am 00:40 Cloudy with Nearby Thunderstorms 70 21.1 68 20 93 93 E 6 9 29.94 1014 10 16 0.00 0.00
12:53 am 00:53 Cloudy with Light Rain 70 21.1 67 19.4 90 90 E 6 9 29.94 1014 10 16 0.00 0.00
1:13 am 01:13 Mostly Cloudy with Light Rain 69 20.6 66 18.9 90 90 ENE 8 13 29.94 1014 10 16 0.00 0.00
1:53 am 01:53 Cloudy 68 20 65 18.3 90 90 ENE 5 7 29.93 1014 10 16 0.00 0.00
2:03 am 02:03 Cloudy 68 20 65 18.3 90 90 ENE 5 7 29.94 1014 10 16 0.00 0.00
2:53 am 02:53 Cloudy 69 20.6 66 18.9 90 90 E 6 9 29.92 1013 10 16 0.00 0.00
3:53 am 03:53 Cloudy with Rain 68 20 66 18.9 93 93 E 8 13 29.92 1013 5 8 0.00 0.00
4:07 am 04:07 Cloudy with Light Rain 68 20 66 18.9 93 93 E 8 13 29.93 1014 5 8 0.00 0.00
4:15 am 04:15 Cloudy with Light Rain 68 20 66 18.9 93 93 ESE 8 13 29.93 1014 3 4 0.00 0.00
4:22 am 04:22 Cloudy with Heavy Rain 68 20 66 18.9 93 93 ESE 7 11 29.93 1014 2 3 0.00 0.00
4:29 am 04:29 Cloudy with Rain 68 20 66 18.9 93 93 ESE 7 11 29.93 1014 2 3 0.00 0.00
4:38 am 04:38 Cloudy with Rain 68 20 67 19.4 96 96 E 5 7 29.93 1014 3 4 0.00 0.00
4:41 am 04:41 Cloudy with Light Rain 68 20 67 19.4 96 96 E 6 9 29.93 1014 3 5 0.00 0.00
4:53 am 04:53 Cloudy with Light Rain 68 20 67 19.4 96 96 ESE 7 11 29.92 1013 7 11 0.00 0.00
5:00 am 05:00 Cloudy 68 20 66 18.9 93 93 ESE 7 11 29.93 1014 10 16 0.00 0.00
5:09 am 05:09 Cloudy 68 20 67 19.4 96 96 ESE 7 11 29.93 1014 8 13 0.00 0.00
5:51 am 05:51 Cloudy 68 20 66 19 94 94 E 7 11 29.93 1014 10 16 0.00 0.00
5:53 am 05:53 Cloudy 68 20 66 18.9 93 93 E 7 11 29.94 1014 10 16 0.00 0.00
6:01 am 06:01 Cloudy 68 20 67 19.4 96 96 E 8 13 29.94 1014 10 16 0.00 0.00
6:18 am 06:18 Cloudy 68 20 66 18.9 93 93 E 7 11 29.94 1014 10 16 0.00 0.00
6:33 am 06:33 Mostly Cloudy 68 20 66 18.9 93 93 E 7 11 29.94 1014 10 16 0.00 0.00
6:46 am 06:46 Mostly Cloudy 68 20 66 18.9 93 93 E 6 9 29.94 1014 10 16 0.00 0.00
6:53 am 06:53 Mostly Cloudy 68 20 66 18.9 93 93 E 6 9 29.94 1014 10 16 0.00 0.00
7:12 am 07:12 Cloudy 68 20 66 18.9 93 93 E 7 11 29.94 1014 10 16 0.00 0.00
7:30 am 07:30 Cloudy 68 20 67 19.4 96 96 E 9 15 29.95 1014 10 16 0.00 0.00
7:53 am 07:53 Mostly Cloudy 69 20.6 67 19.4 93 93 E 9 15 29.96 1015 10 16 0.00 0.00
8:07 am 08:07 Mostly Cloudy 69 20.6 67 19.4 93 93 ESE 10 17 29.95 1014 10 16 0.00 0.00
8:37 am 08:37 Partly Cloudy 70 21.1 67 19.4 90 90 ESE 10 17 29.96 1014 10 16 0.00 0.00
8:46 am 08:46 Mostly Cloudy 71 21.7 67 19.4 87 87 SE 13 20 29.95 1014 10 16 0.00 0.00
8:50 am 08:50 Partly Cloudy 72 22 66 19 83 83 SE 14 22 29.95 1014 10 16 0.00 0.00
8:53 am 08:53 Partly Cloudy 71 21.7 66 18.9 84 84 ESE 12 19 29.98 1015 10 16 0.00 0.00
9:05 am 09:05 Mostly Cloudy 71 21.7 66 18.9 84 84 SE 13 20 29.96 1015 10 16 0.00 0.00
9:53 am 09:53 Cloudy 73 22.8 66 18.9 79 79 SE 14 22 29.99 1016 10 16 0.00 0.00
10:53 am 10:53 Mostly Cloudy 74 23.3 66 18.9 76 76 ESE 12 19 29.98 1015 10 16 0.00 0.00
11:10 am 11:10 Mostly Cloudy 74 23.3 66 18.9 76 76 SE 13 20 29.96 1014 10 16 0.00 0.00
11:45 am 11:45 Mostly Cloudy 76 24.4 66 18.9 72 72 ESE 13 20 29.95 1014 10 16 0.00 0.00
11:53 am 11:53 Mostly Cloudy 76 24.4 66 18.9 72 72 SE 15 24 29.99 1016 10 16 0.00 0.00
12:53 pm 12:53 Partly Cloudy 78 25.6 66 18.9 67 67 SE 12 19 29.97 1015 10 16 0.00 0.00
1:53 pm 13:53 Partly Cloudy 81 27.2 65 18.3 58 58 SSE 15 24 29.95 1014 10 16 0.00 0.00
2:53 pm 14:53 Partly Cloudy 82 27.8 64 17.8 55 55 ESE 16 26 29.93 1014 10 16 0.00 0.00
3:53 pm 15:53 Partly Cloudy 82 27.8 64 17.8 55 55 SE 10 17 29.92 1013 10 16 0.00 0.00
4:53 pm 16:53 Sunny 84 28.9 63 17.2 49 49 SE 16 26 29.89 1012 10 16 0.00 0.00
5:53 pm 17:53 Mostly Cloudy 84 28.9 63 17.2 49 49 E 14 22 29.90 1012 10 16 0.00 0.00
6:53 pm 18:53 Partly Cloudy 82 27.8 62 16.7 51 51 SE 8 13 29.89 1012 10 16 0.00 0.00
7:53 pm 19:53 Sunny 81 27.2 63 17.2 54 54 ESE 12 19 29.91 1013 10 16 0.00 0.00
8:53 pm 20:53 Sunny 79 26.1 64 17.8 60 60 E 10 17 29.92 1013 10 16 0.00 0.00
9:53 pm 21:53 Clear 77 25 65 18.3 66 66 E 9 15 29.94 1014 10 16 0.00 0.00
10:53 pm 22:53 Clear 75 23.9 64 17.8 69 69 E 9 15 29.96 1014 10 16 0.00 0.00
11:53 pm 23:53 Partly Cloudy 75 23.9 65 18.3 71 71 E 10 17 29.96 1014 10 16 0.00 0.00

Powered by AerisWeather